Home > Weather > Ulyanovsk > Past weeks

Flag for Russia Past Weather in Ulyanovsk, Russia — Yesterday and Last 2 Weeks

Now
63 °F

Clear.


Feels Like: 63 °F
Forecast: 51 / 60 °F
Wind: 15 mph from Northeast

Location: Ulyanovsk

Current Time: May 31, 2016 at 4:08:12 PM

Latest Report: May 31, 2016 at 3:00 PM


Visibility: 5 mi

Pressure: 30.12 "Hg

Humidity: 32%

Dew Point: 32 °F

Location of UlyanovskLocation

Past Weather in Ulyanovsk — Graph

°F

Ulyanovsk Temperature Yesterday

Maximum temperature yesterday: 77 °F (at 3:00 PM)
Minimum temperature yesterday: 61 °F (at 3:00 AM)
Average temperature yesterday: 69 °F

High & Low Weather Summary for the Past Weeks

 TemperatureHumidityPressure
High86 °F (May 27, 1:00 PM)100% (May 21, 4:00 AM)30.12 "Hg (May 21, 4:00 AM)
Low41 °F (May 17, 4:00 AM)22% (May 26, 12:00 PM)29.83 "Hg (May 22, 9:00 AM)
Average64 °F61%30.00 "Hg
* Reported May 16 2:00 PM — May 31 2:00 PM, Ulyanovsk, Weather by CustomWeather, © 2016

Note: Actual official high and low records may vary slightly from our data, if they occured in-between our weather recording intervals... More about our weather records

Advertising

Ulyanovsk Weather History for the Previous 24 Hours

Scroll right to see more
 ConditionsComfort  
Time TempWeatherWind HumidityBarometerVisibility
2:00 PM
Tue, May 31
61 °FClear.10 mph34%30.12 "Hg5 mi
1:00 PM61 °FClear.13 mph34%30.12 "Hg5 mi
12:30 PM61 °FClear.13 mph31%30.12 "Hg5 mi
12:00 PM61 °FClear.13 mph31%30.12 "Hg5 mi
11:00 AM55 °FClear.13 mph38%30.12 "Hg5 mi
10:00 AM55 °FClear.10 mph38%30.12 "Hg5 mi
9:00 AM54 °FClear.13 mph44%30.12 "Hg5 mi
8:00 AM54 °FClear.15 mph47%30.12 "Hg5 mi
7:00 AM52 °FClear.15 mph50%30.12 "Hg5 mi
6:00 AM50 °FClear.13 mph54%30.09 "Hg5 mi
5:00 AM50 °FClear.8 mph54%30.09 "Hg5 mi
4:00 AM52 °FClear.13 mph50%30.09 "Hg5 mi
3:00 AM54 °FClear.10 mph51%30.07 "Hg5 mi
2:00 AM57 °FClear.13 mph44%30.04 "Hg5 mi
1:00 AM57 °FClear.10 mph48%30.04 "Hg5 mi
12:00 AM59 °FClear.8 mph48%30.01 "Hg5 mi
11:00 PM
Mon, May 30
63 °FClear.8 mph42%30.01 "Hg5 mi
10:00 PM64 °FClear.10 mph43%29.98 "Hg5 mi
9:00 PM68 °FClear.13 mph53%29.95 "Hg5 mi
8:00 PM72 °FClear.6 mph50%29.95 "Hg5 mi
7:00 PM75 °FClear.6 mph36%29.92 "Hg5 mi
6:00 PM75 °FClear.6 mph34%29.95 "Hg5 mi
5:00 PM77 °FPassing clouds.3 mph32%29.95 "Hg5 mi
4:00 PM77 °FPassing clouds.6 mph34%29.98 "Hg5 mi
Weather by CustomWeather, © 2016

See weather overviewHow to use our weather pages